Date String (YYYY-MM-DD hh:mm:ss) UTC,Instrument flags,absolute air pressure of the measurement (hPa),sample flow rate (lpm),inlet stack bypass flow (lpm),air temperature of the measurement (°C),ambient temperature measured by the external sensor (°C),aerosol sample conditioner tube jacket temperature (°C),OPC LED temperature (°C),internal box temperature (°C),relative humidity of the measurement (%),span deviation,mass concentration of particles derived from Lorenz-Mie calculation of OPC scattering (μg/m³),mass concentration of particles derived from Lorenz-Mie calculation of OPC scattering (μg/m³),mass concentration of particles derived from Lorenz-Mie calculation of OPC scattering (μg/m³)
DateTimeUTC,F1_M11,P_M11,Q1_M11,Q2_M11,T1_M11,T2_M11,T3_M11,T4_M11,T5_M11,U1_M11,ZSPAN_M11,X0_M11,X2_M11,X1_M11
2023-10-09 23:00:00,SystemResetWarning,0825.7,5.01,000.00,028.2,024.0,000.0,036.5,029.8,11.5,0000.0,0009.28,0003.76,0003.34
2023-10-09 23:01:00,SystemResetWarning,0825.6,5.01,000.00,028.1,024.2,000.0,036.4,029.7,11.6,0000.0,0009.89,0003.78,0003.34
2023-10-09 23:02:00,SystemResetWarning,0825.7,5.00,000.00,028.0,024.5,000.0,036.4,029.5,11.8,0000.0,0010.43,0003.79,0003.34
2023-10-09 23:03:00,SystemResetWarning,0825.6,5.00,000.00,028.0,025.0,000.0,036.4,029.5,11.8,0000.0,0010.84,0003.77,0003.33
2023-10-09 23:04:00,SystemResetWarning,0825.7,4.99,000.00,028.0,025.4,000.0,036.4,029.6,11.9,0000.0,0011.53,0003.76,0003.33
2023-10-09 23:05:00,SystemResetWarning,0825.7,4.99,000.00,028.0,025.8,000.0,036.5,029.7,11.8,0000.0,0011.43,0003.75,0003.33
2023-10-09 23:06:00,SystemResetWarning,0825.6,5.00,000.00,028.0,026.2,000.0,036.5,029.8,11.6,0000.0,0011.20,0003.71,0003.32
2023-10-09 23:07:00,SystemResetWarning,0825.6,5.01,000.00,028.1,026.5,000.0,036.5,029.8,11.6,0000.0,0010.95,0003.69,0003.31
2023-10-09 23:08:00,SystemResetWarning,0825.6,5.00,000.00,028.1,026.7,000.0,036.5,029.9,11.5,0000.0,0010.00,0003.68,0003.31
2023-10-09 23:09:00,SystemResetWarning,0825.6,4.99,000.00,028.2,027.0,000.0,036.5,030.0,11.5,0000.0,0009.81,0003.68,0003.30
2023-10-09 23:10:00,SystemResetWarning,0825.6,5.00,000.00,028.2,027.2,000.0,036.5,030.1,11.5,0000.0,0010.48,0003.68,0003.29
2023-10-09 23:11:00,SystemResetWarning,0825.6,5.01,000.00,028.3,027.3,000.0,036.6,030.1,11.5,0000.0,0011.12,0003.68,0003.29
2023-10-09 23:12:00,SystemResetWarning,0825.6,5.00,000.00,028.3,027.0,000.0,036.6,030.2,11.4,0000.0,0010.96,0003.65,0003.28
2023-10-09 23:13:00,SystemResetWarning,0825.6,4.98,000.00,028.3,025.5,000.0,036.5,030.1,11.5,0000.0,0010.42,0003.60,0003.27
2023-10-09 23:14:00,SystemResetWarning,0825.6,5.01,000.00,028.3,025.1,000.0,036.5,030.0,11.4,0000.0,0009.70,0003.60,0003.27
2023-10-09 23:15:00,SystemResetWarning,0825.6,5.01,000.00,028.2,025.2,000.0,036.5,029.8,11.5,0000.0,0009.28,0003.62,0003.28
2023-10-09 23:16:00,SystemResetWarning,0825.6,5.00,000.00,028.2,025.5,000.0,036.5,029.8,11.6,0000.0,0008.67,0003.60,0003.28
2023-10-09 23:17:00,SystemResetWarning,0825.6,5.01,000.00,028.2,025.9,000.0,036.6,029.8,11.5,0000.0,0008.19,0003.61,0003.28
2023-10-09 23:18:00,SystemResetWarning,0825.6,5.00,000.00,028.2,026.2,000.0,036.6,029.9,11.7,0000.0,0008.31,0003.64,0003.29
2023-10-09 23:19:00,SystemResetWarning,0825.7,5.00,000.00,028.2,026.5,000.0,036.6,030.0,11.7,0000.0,0008.25,0003.62,0003.29
2023-10-09 23:20:00,SystemResetWarning,0825.6,5.00,000.00,028.3,026.8,000.0,036.6,030.1,11.7,0000.0,0008.29,0003.63,0003.29
2023-10-09 23:21:00,SystemResetWarning,0825.7,5.00,000.00,028.3,027.0,000.0,036.7,030.1,11.7,0000.0,0008.26,0003.65,0003.29
2023-10-09 23:22:00,SystemResetWarning,0825.7,4.99,000.00,028.4,027.2,000.0,036.7,030.2,11.8,0000.0,0007.75,0003.68,0003.30
2023-10-09 23:23:00,SystemResetWarning,0825.7,5.00,000.00,028.4,026.5,000.0,036.7,030.2,11.9,0000.0,0007.61,0003.69,0003.31
2023-10-09 23:24:00,SystemResetWarning,0825.6,5.00,000.00,028.3,024.6,000.0,036.6,029.9,11.7,0000.0,0008.07,0003.74,0003.32
2023-10-09 23:25:00,SystemResetWarning,0825.6,5.00,000.00,028.2,024.1,000.0,036.5,029.8,11.5,0000.0,0008.19,0003.74,0003.32
2023-10-09 23:26:00,SystemResetWarning,0825.6,5.01,000.00,028.1,024.3,000.0,036.5,029.6,11.7,0000.0,0008.46,0003.78,0003.32
2023-10-09 23:27:00,SystemResetWarning,0825.7,5.00,000.00,028.1,024.7,000.0,036.5,029.5,11.9,0000.0,0009.36,0003.82,0003.32
2023-10-09 23:28:00,SystemResetWarning,0825.6,4.98,000.00,028.0,025.2,000.0,036.5,029.6,11.7,0000.0,0009.96,0003.82,0003.32
2023-10-09 23:29:00,SystemResetWarning,0825.6,5.00,000.00,028.1,025.6,000.0,036.6,029.7,11.7,0000.0,0010.07,0003.81,0003.30
2023-10-09 23:30:00,SystemResetWarning,0825.6,5.02,000.00,028.1,026.0,000.0,036.6,029.8,11.5,0000.0,0010.29,0003.80,0003.29
2023-10-09 23:31:00,SystemResetWarning,0825.6,5.00,000.00,028.1,026.3,000.0,036.6,029.8,11.5,0000.0,0010.37,0003.81,0003.28
2023-10-09 23:32:00,SystemResetWarning,0825.7,5.00,000.00,028.2,026.6,000.0,036.6,029.9,11.7,0000.0,0010.84,0003.81,0003.28
2023-10-09 23:33:00,SystemResetWarning,0825.7,5.00,000.00,028.2,026.9,000.0,036.6,030.0,11.7,0000.0,0010.57,0003.77,0003.25
2023-10-09 23:34:00,SystemResetWarning,0825.7,4.99,000.00,028.2,027.1,000.0,036.6,030.1,11.7,0000.0,0010.50,0003.77,0003.24
2023-10-09 23:35:00,SystemResetWarning,0825.7,5.00,000.00,028.3,027.2,000.0,036.6,030.1,11.7,0000.0,0010.06,0003.77,0003.22
2023-10-09 23:36:00,SystemResetWarning,0825.7,5.01,000.00,028.4,027.4,000.0,036.7,030.2,11.5,0000.0,0010.02,0003.78,0003.21
2023-10-09 23:37:00,SystemResetWarning,0825.6,4.99,000.00,028.4,026.3,000.0,036.6,030.2,11.5,0000.0,0010.00,0003.77,0003.21
2023-10-09 23:38:00,SystemResetWarning,0825.6,5.01,000.00,028.3,025.2,000.0,036.6,030.0,11.6,0000.0,0009.29,0003.74,0003.19
2023-10-09 23:39:00,SystemResetWarning,0825.6,5.01,000.00,028.3,025.1,000.0,036.6,029.9,11.8,0000.0,0010.15,0003.73,0003.18
2023-10-09 23:40:00,SystemResetWarning,0825.6,4.99,000.00,028.2,025.4,000.0,036.6,029.8,11.8,0000.0,0010.57,0003.70,0003.18
2023-10-09 23:41:00,SystemResetWarning,0825.6,5.00,000.00,028.2,025.8,000.0,036.6,029.8,11.7,0000.0,0012.14,0003.72,0003.18
2023-10-09 23:42:00,SystemResetWarning,0825.6,5.00,000.00,028.2,026.1,000.0,036.6,029.9,11.7,0000.0,0012.43,0003.76,0003.19
2023-10-09 23:43:00,SystemResetWarning,0825.6,5.01,000.00,028.2,026.4,000.0,036.6,030.0,11.7,0000.0,0012.10,0003.75,0003.19
2023-10-09 23:44:00,SystemResetWarning,0825.6,5.00,000.00,028.3,026.7,000.0,036.7,030.1,11.6,0000.0,0012.49,0003.79,0003.20
2023-10-09 23:45:00,SystemResetWarning,0825.6,5.00,000.00,028.3,026.9,000.0,036.7,030.1,11.6,0000.0,0012.99,0003.83,0003.20
2023-10-09 23:46:00,SystemResetWarning,0825.6,4.99,000.00,028.4,027.2,000.0,036.7,030.2,11.6,0000.0,0013.83,0003.84,0003.20
2023-10-09 23:47:00,SystemResetWarning,0825.7,4.98,000.00,028.4,026.3,000.0,036.7,030.2,11.5,0000.0,0014.72,0003.83,0003.21
2023-10-09 23:48:00,SystemResetWarning,0825.6,5.00,000.00,028.3,024.6,000.0,036.6,029.9,11.5,0000.0,0014.75,0003.80,0003.21
2023-10-09 23:49:00,SystemResetWarning,0825.6,5.00,000.00,028.2,024.0,000.0,036.6,029.8,11.6,0000.0,0014.59,0003.76,0003.20
2023-10-09 23:50:00,SystemResetWarning,0825.6,5.01,000.00,028.2,024.3,000.0,036.5,029.6,11.6,0000.0,0013.38,0003.80,0003.20
2023-10-09 23:51:00,SystemResetWarning,0825.6,5.01,000.00,028.1,024.7,000.0,036.5,029.6,11.6,0000.0,0012.94,0003.86,0003.20
2023-10-09 23:52:00,SystemResetWarning,0825.6,4.99,000.00,028.1,025.2,000.0,036.6,029.6,11.6,0000.0,0011.72,0003.90,0003.21
2023-10-09 23:53:00,SystemResetWarning,0825.6,5.00,000.00,028.1,025.6,000.0,036.6,029.7,11.6,0000.0,0012.10,0003.91,0003.21
2023-10-09 23:54:00,SystemResetWarning,0825.6,5.00,000.00,028.1,026.0,000.0,036.6,029.8,11.6,0000.0,0012.22,0003.88,0003.20
2023-10-09 23:55:00,SystemResetWarning,0825.6,5.01,000.00,028.1,026.3,000.0,036.6,029.9,11.6,0000.0,0013.38,0003.87,0003.20
2023-10-09 23:56:00,SystemResetWarning,0825.6,5.01,000.00,028.2,026.6,000.0,036.6,029.9,11.6,0000.0,0013.33,0003.86,0003.20
2023-10-09 23:57:00,SystemResetWarning,0825.6,5.01,000.00,028.2,026.9,000.0,036.6,030.0,11.5,0000.0,0013.64,0003.88,0003.21
2023-10-09 23:58:00,SystemResetWarning,0825.6,4.99,000.00,028.3,027.1,000.0,036.6,030.1,11.5,0000.0,0012.80,0003.90,0003.21
2023-10-09 23:59:00,SystemResetWarning,0825.6,5.00,000.00,028.3,027.2,000.0,036.6,030.1,11.4,0000.0,0012.76,0003.95,0003.21
